FW7745 Weather Reports


Display with metric or nautical units.
time (UTC)temp
F
wind
direction
speed
MPH
gust
MPH
rain 1hr
in
rain 24hr
in
rain mn
in
humidity
%
barometer
mb
20260510071009 57 163 0.0 0.0 0.00 0.00 0.00 93 1012.2
20260510070505 57 148 0.0 0.0 0.00 0.00 0.00 92 1012.2
20260510070001 57 156 0.0 0.0 0.00 0.00 0.00 92 1012.2
20260510065458 57 233 0.0 0.0 0.00 0.00 0.00 92 1012.2
20260510064954 57 296 0.0 0.0 0.00 0.00 0.00 92 1012.2
20260510064451 57 270 0.0 0.0 0.00 0.00 0.00 92 1012.2
20260510063948 58 153 0.0 0.0 0.00 0.00 0.00 91 1012.0
20260510063444 58 227 0.0 0.0 0.00 0.00 0.00 91 1012.1
20260510062943 58 199 0.0 0.0 0.00 0.00 0.00 91 1012.1
20260510062443 58 145 0.0 0.0 0.00 0.00 0.00 91 1012.3
20260510061938 58 150 0.0 0.0 0.00 0.00 0.00 91 1012.2
20260510061435 58 247 0.0 0.0 0.00 0.00 0.00 90 1012.2
20260510060931 58 247 0.0 0.0 0.00 0.00 0.00 90 1012.2
20260510060428 59 327 0.0 0.0 0.00 0.00 0.00 90 1012.0
20260510055925 59 308 0.0 0.0 0.00 0.00 0.00 89 1012.1
20260510055421 59 316 0.0 0.0 0.00 0.00 0.00 89 1012.1
20260510054919 59 332 3.0 3.0 0.00 0.00 0.00 89 1012.1
20260510054414 59 289 0.0 0.0 0.00 0.00 0.00 89 1012.2
20260510053909 59 279 0.0 0.0 0.00 0.00 0.00 89 1012.1
20260510053405 59 305 0.0 0.0 0.00 0.00 0.00 89 1012.0
20260510052901 59 268 0.0 0.0 0.00 0.00 0.00 88 1012.1
20260510052357 59 324 0.0 0.0 0.00 0.00 0.00 88 1012.2
20260510051854 60 288 0.0 0.0 0.00 0.00 0.00 88 1012.0
20260510051350 60 186 0.0 0.0 0.00 0.00 0.00 88 1012.1
20260510050847 60 247 0.0 0.0 0.00 0.00 0.00 87 1012.1
20260510050344 60 285 0.0 0.0 0.00 0.00 0.00 87 1011.9
20260510045841 60 219 0.0 0.0 0.00 0.00 0.00 87 1012.1
20260510045338 60 258 0.0 0.0 0.00 0.00 0.00 86 1012.1
20260510044835 60 247 0.0 0.0 0.00 0.00 0.00 86 1012.1
20260510044332 60 194 0.0 0.0 0.00 0.00 0.00 85 1012.0
20260510043828 60 149 1.0 2.0 0.00 0.00 0.00 86 1012.4
20260510043324 60 263 0.0 0.0 0.00 0.00 0.00 85 1012.3
20260510042822 60 276 0.0 0.0 0.00 0.00 0.00 85 1012.1
20260510042318 61 300 0.0 0.0 0.00 0.00 0.00 84 1012.1
20260510041814 61 314 0.0 0.0 0.00 0.00 0.00 84 1012.3
20260510041312 61 234 0.0 0.0 0.00 0.00 0.00 84 1012.2
20260510040809 61 180 0.0 1.0 0.00 0.00 0.00 83 1012.1
20260510040305 61 327 0.0 0.0 0.00 0.00 0.00 83 1012.2
20260510035801 62 257 0.0 0.0 0.00 0.00 0.00 82 1012.1
20260510035257 62 280 0.0 0.0 0.00 0.00 0.00 81 1011.9
20260510034752 62 225 0.0 0.0 0.00 0.00 0.00 81 1012.0
20260510034250 62 338 0.0 0.0 0.00 0.00 0.00 81 1012.0
20260510033747 63 327 1.0 1.0 0.00 0.00 0.00 80 1011.9
20260510033244 63 338 0.0 1.0 0.00 0.00 0.00 80 1012.1
20260510032740 63 338 0.0 0.0 0.00 0.00 0.00 80 1012.0
20260510032237 63 338 0.0 0.0 0.00 0.00 0.00 79 1011.8
20260510031732 64 338 0.0 0.0 0.00 0.00 0.00 79 1011.9
20260510031228 64 338 0.0 0.0 0.00 0.00 0.00 78 1011.9
20260510030727 64 338 0.0 1.0 0.00 0.00 0.00 78 1011.7
20260510030225 64 338 0.0 0.0 0.00 0.00 0.00 78 1011.8
20260510025722 64 338 0.0 0.0 0.00 0.00 0.00 77 1011.9
20260510025220 64 338 0.0 0.0 0.00 0.00 0.00 77 1011.9
20260510024716 65 338 0.0 0.0 0.00 0.00 0.00 76 1011.6
20260510024214 65 338 0.0 0.0 0.00 0.00 0.00 76 1011.6
20260510023708 66 338 0.0 0.0 0.00 0.00 0.00 75 1011.7
20260510023206 66 338 0.0 1.0 0.00 0.00 0.00 75 1011.6
20260510022702 66 326 0.0 0.0 0.00 0.00 0.00 74 1011.6
20260510022156 67 338 0.0 0.0 0.00 0.00 0.00 74 1011.6
20260510021652 67 338 1.0 2.0 0.00 0.00 0.00 73 1011.7
20260510021149 67 302 0.0 0.0 0.00 0.00 0.00 73 1011.4
20260510020644 67 9 0.0 0.0 0.00 0.00 0.00 73 1011.4
20260510020139 67 71 1.0 1.0 0.00 0.00 0.00 73 1011.4
20260510015635 67 286 0.0 0.0 0.00 0.00 0.00 73 1011.3
20260510015132 67 313 0.0 0.0 0.00 0.00 0.00 73 1011.3
20260510014627 67 325 1.0 1.0 0.00 0.00 0.00 73 1011.1
20260510014125 67 293 1.0 2.0 0.00 0.00 0.00 73 1011.4
20260510013625 67 297 0.0 0.0 0.00 0.00 0.00 72 1011.1
20260510013121 67 283 0.0 0.0 0.00 0.00 0.00 71 1010.8
20260510012621 67 313 0.0 0.0 0.00 0.00 0.00 71 1010.8
20260510012117 67 299 0.0 0.0 0.00 0.00 0.00 70 1010.8
20260510011617 68 262 0.0 0.0 0.00 0.00 0.00 70 1010.7
20260510011113 68 297 0.0 0.0 0.00 0.00 0.00 70 1010.7
20260510010609 68 300 0.0 0.0 0.00 0.00 0.00 70 1010.8
20260510010107 68 290 1.0 1.0 0.00 0.00 0.00 69 1010.5
20260510005602 68 263 0.0 1.0 0.00 0.00 0.00 69 1010.4
20260510005100 68 37 2.0 2.0 0.00 0.00 0.00 68 1010.5
20260510004557 69 136 0.0 0.0 0.00 0.00 0.00 67 1010.4
20260510004055 69 155 0.0 1.0 0.00 0.00 0.00 66 1010.6
20260510003552 69 148 1.0 1.0 0.00 0.00 0.00 65 1010.4
20260510003048 69 147 0.0 0.0 0.00 0.00 0.00 65 1010.5
20260510002543 69 147 0.0 0.0 0.00 0.00 0.00 64 1010.4
20260510002040 69 146 0.0 0.0 0.00 0.00 0.00 63 1010.2
20260510001537 70 147 0.0 0.0 0.00 0.00 0.00 62 1010.2
20260510001036 71 147 0.0 0.0 0.00 0.00 0.00 61 1010.2
20260510000530 72 147 0.0 0.0 0.00 0.00 0.00 60 1010.1
20260510000027 73 147 0.0 0.0 0.00 0.00 0.00 58 1010.0
20260509235524 73 131 0.0 0.0 0.00 0.00 0.00 58 1010.2
20260509235021 73 211 1.0 1.0 0.00 0.00 0.00 57 1009.8
20260509234517 73 190 2.0 3.0 0.00 0.00 0.00 57 1010.0
20260509234015 73 233 2.0 2.0 0.00 0.00 0.00 57 1009.8
20260509233512 73 220 1.0 1.0 0.00 0.00 0.00 57 1010.1
20260509233009 73 207 1.0 1.0 0.00 0.00 0.00 56 1009.7
20260509232501 73 198 1.0 1.0 0.00 0.00 0.00 56 1009.9
20260509231956 74 194 3.0 3.0 0.00 0.00 0.00 56 1009.7
20260509231453 74 164 2.0 3.0 0.00 0.00 0.00 56 1009.7
20260509230951 74 224 1.0 1.0 0.00 0.00 0.00 56 1009.8
20260509230447 74 181 3.0 3.0 0.00 0.00 0.00 56 1009.7
20260509225944 74 218 3.0 3.0 0.00 0.00 0.00 55 1010.0
20260509225440 74 202 3.0 3.0 0.00 0.00 0.00 56 1009.6
20260509224936 74 239 1.0 2.0 0.00 0.00 0.00 55 1009.9
20260509224431 74 168 5.0 6.0 0.00 0.00 0.00 55 1010.0
20260509223929 74 109 3.0 3.0 0.00 0.00 0.00 55 1009.7
20260509223425 74 212 4.0 5.0 0.00 0.00 0.00 55 1009.9
20260509222923 74 201 1.0 2.0 0.00 0.00 0.00 55 1009.8
20260509222418 74 227 3.0 7.0 0.00 0.00 0.00 55 1010.0
20260509221914 74 219 4.0 6.0 0.00 0.00 0.00 55 1009.9
20260509221411 74 201 7.0 8.0 0.00 0.00 0.00 55 1010.0
20260509220907 74 237 1.0 2.0 0.00 0.00 0.00 55 1009.8
20260509220403 74 213 5.0 5.0 0.00 0.00 0.00 55 1009.8
20260509215859 74 184 6.0 7.0 0.00 0.00 0.00 55 1009.8
20260509215355 74 256 2.0 5.0 0.00 0.00 0.00 55 1010.1
20260509214852 74 267 3.0 3.0 0.00 0.00 0.00 55 1009.9
20260509214349 75 152 5.0 6.0 0.00 0.00 0.00 55 1009.8
20260509213846 76 199 4.0 6.0 0.00 0.00 0.00 52 1010.0
20260509213342 75 171 8.0 9.0 0.00 0.00 0.00 53 1009.8
20260509212840 74 193 6.0 7.0 0.00 0.00 0.00 54 1009.9
20260509212337 75 203 3.0 5.0 0.00 0.00 0.00 55 1010.1
20260509211833 74 170 4.0 5.0 0.00 0.00 0.00 55 1010.0
20260509211329 75 166 3.0 5.0 0.00 0.00 0.00 54 1009.9
20260509210825 75 177 6.0 8.0 0.00 0.00 0.00 53 1009.9
20260509210323 75 186 4.0 6.0 0.00 0.00 0.00 53 1009.9
20260509205822 75 171 8.0 9.0 0.00 0.00 0.00 54 1009.8
20260509205317 75 200 2.0 5.0 0.00 0.00 0.00 53 1009.5
20260509204814 73 310 4.0 6.0 0.00 0.00 0.00 55 1009.9
20260509204310 75 224 5.0 7.0 0.00 0.00 0.00 54 1009.7
20260509203806 75 172 5.0 6.0 0.00 0.00 0.00 54 1009.4
20260509203304 75 139 7.0 10.0 0.00 0.00 0.00 53 1009.7
20260509202800 76 145 3.0 3.0 0.00 0.00 0.00 53 1009.5
20260509202256 75 257 5.0 6.0 0.00 0.00 0.00 53 1009.6
20260509201755 76 208 6.0 8.0 0.00 0.00 0.00 54 1009.8
20260509201252 76 176 5.0 7.0 0.00 0.00 0.00 52 1009.9
20260509200749 75 245 2.0 2.0 0.00 0.00 0.00 54 1010.0
20260509200244 75 221 4.0 6.0 0.00 0.00 0.00 54 1010.2
20260509195741 75 191 5.0 6.0 0.00 0.00 0.00 54 1010.0
20260509195236 75 25 1.0 2.0 0.00 0.00 0.00 54 1010.3
20260509194731 74 277 3.0 6.0 0.00 0.00 0.00 56 1010.2
20260509194227 73 172 3.0 3.0 0.00 0.00 0.00 56 1010.5
20260509193724 72 199 3.0 5.0 0.00 0.00 0.00 58 1010.8
20260509193223 72 243 4.0 5.0 0.00 0.00 0.00 58 1010.9
20260509192720 72 236 3.0 3.0 0.00 0.00 0.00 57 1010.8
20260509192215 72 224 3.0 3.0 0.00 0.00 0.00 57 1010.8
20260509191711 72 193 3.0 5.0 0.00 0.00 0.00 58 1010.8
20260509191207 72 237 5.0 7.0 0.00 0.00 0.00 58 1011.1
20260509190703 71 192 5.0 7.0 0.00 0.00 0.00 59 1010.8
20260509190201 72 218 5.0 7.0 0.00 0.00 0.00 58 1010.8
20260509185659 71 242 5.0 6.0 0.00 0.00 0.00 59 1010.6
20260509185154 71 167 5.0 7.0 0.00 0.00 0.00 60 1011.1
20260509184652 70 162 7.0 9.0 0.00 0.00 0.00 59 1011.3
20260509184149 70 218 7.0 9.0 0.00 0.00 0.00 59 1011.4
20260509183645 70 221 5.0 9.0 0.00 0.00 0.00 59 1011.4
20260509183140 70 198 6.0 7.0 0.00 0.00 0.00 59 1011.5
20260509182636 71 206 4.0 7.0 0.00 0.00 0.00 59 1011.5
20260509182134 71 136 2.0 2.0 0.00 0.00 0.00 59 1011.6
20260509181632 71 156 5.0 7.0 0.00 0.00 0.00 58 1011.5
20260509181129 71 193 6.0 8.0 0.00 0.00 0.00 58 1011.7
20260509180626 70 196 3.0 3.0 0.00 0.00 0.00 58 1011.8
20260509180122 70 183 3.0 3.0 0.00 0.00 0.00 58 1012.0
20260509175618 70 203 10.0 15.0 0.00 0.00 0.00 58 1012.1
20260509175115 71 169 3.0 5.0 0.00 0.00 0.00 57 1012.1
20260509174611 71 129 8.0 11.0 0.00 0.00 0.00 56 1012.1
20260509174106 72 296 5.0 6.0 0.00 0.00 0.00 55 1012.1
20260509173602 72 202 4.0 6.0 0.00 0.00 0.00 55 1012.0
20260509173058 73 204 2.0 3.0 0.00 0.00 0.00 55 1012.2
20260509172555 71 195 6.0 8.0 0.00 0.00 0.00 57 1012.1
20260509172050 71 149 3.0 3.0 0.00 0.00 0.00 57 1012.1
20260509171547 71 177 7.0 11.0 0.00 0.00 0.00 57 1012.1
20260509171043 71 190 4.0 6.0 0.00 0.00 0.00 57 1012.1
20260509170539 70 146 3.0 3.0 0.00 0.00 0.00 58 1012.2
20260509170035 70 152 6.0 8.0 0.00 0.00 0.00 59 1012.1
20260509165534 70 170 7.0 9.0 0.00 0.00 0.00 58 1012.4
20260509165029 70 334 4.0 6.0 0.00 0.00 0.00 58 1012.2
20260509164526 70 124 3.0 5.0 0.00 0.00 0.00 58 1012.3
20260509164021 69 239 3.0 3.0 0.00 0.00 0.00 59 1012.3
20260509163520 69 271 4.0 5.0 0.00 0.00 0.00 59 1012.4
20260509163014 69 246 2.0 3.0 0.00 0.00 0.00 59 1012.4
20260509162512 69 262 3.0 5.0 0.00 0.00 0.00 60 1012.2
20260509162008 69 210 5.0 7.0 0.00 0.00 0.00 60 1012.3
20260509161505 69 240 8.0 10.0 0.00 0.00 0.00 60 1012.4
20260509160959 68 253 3.0 5.0 0.00 0.00 0.00 60 1012.2
20260509160456 69 257 8.0 10.0 0.00 0.00 0.00 60 1012.4
20260509155956 68 235 3.0 5.0 0.00 0.00 0.00 60 1012.4
20260509155453 70 235 5.0 7.0 0.00 0.00 0.00 59 1012.5
20260509154949 70 171 8.0 10.0 0.00 0.00 0.00 59 1012.5
20260509154445 70 158 5.0 7.0 0.00 0.00 0.00 59 1012.7
20260509153943 69 351 2.0 2.0 0.00 0.00 0.00 60 1012.7
20260509153440 69 214 5.0 7.0 0.00 0.00 0.00 59 1012.6
20260509152937 68 201 3.0 3.0 0.00 0.00 0.00 61 1012.8
20260509152432 68 195 6.0 11.0 0.00 0.00 0.00 60 1012.6
20260509151930 67 153 5.0 6.0 0.00 0.00 0.00 62 1013.0
20260509151426 67 217 4.0 6.0 0.00 0.00 0.00 62 1012.9
20260509150924 68 219 7.0 9.0 0.00 0.00 0.00 62 1012.9
20260509150421 68 211 5.0 7.0 0.00 0.00 0.00 62 1013.1
20260509145920 67 222 3.0 5.0 0.00 0.00 0.00 63 1013.1
20260509145419 66 210 7.0 8.0 0.00 0.00 0.00 65 1013.0
20260509144915 66 235 8.0 11.0 0.00 0.00 0.00 64 1013.2
20260509144412 66 195 3.0 5.0 0.00 0.00 0.00 64 1013.3
20260509143909 66 218 3.0 3.0 0.00 0.00 0.00 65 1013.3
20260509143407 66 242 3.0 5.0 0.00 0.00 0.00 65 1013.5
20260509142903 65 170 4.0 5.0 0.00 0.00 0.00 66 1013.6
20260509142359 64 246 1.0 1.0 0.00 0.00 0.00 67 1013.4
20260509141855 64 231 0.0 1.0 0.00 0.00 0.00 67 1013.5
20260509141352 64 184 4.0 6.0 0.00 0.00 0.00 67 1013.8
20260509140848 63 171 1.0 2.0 0.00 0.00 0.00 68 1013.5
20260509140346 63 225 5.0 7.0 0.00 0.00 0.00 68 1013.5
20260509135844 62 214 5.0 8.0 0.00 0.00 0.00 68 1013.4
20260509135341 62 188 6.0 8.0 0.00 0.00 0.00 69 1013.6
20260509134838 62 264 5.0 6.0 0.00 0.00 0.00 69 1013.7
20260509134335 62 207 5.0 6.0 0.00 0.00 0.00 69 1013.6
20260509133832 62 240 6.0 9.0 0.00 0.00 0.00 69 1013.6
20260509133329 62 223 5.0 6.0 0.00 0.00 0.00 69 1013.6
20260509132828 61 157 9.0 13.0 0.00 0.00 0.00 70 1013.6
20260509132326 61 220 3.0 6.0 0.00 0.00 0.00 69 1013.6
20260509131822 61 200 3.0 6.0 0.00 0.00 0.00 70 1013.5
20260509131319 60 194 5.0 8.0 0.00 0.00 0.00 71 1013.4
20260509130815 61 198 10.0 15.0 0.00 0.00 0.00 70 1013.7
20260509130311 60 196 6.0 9.0 0.00 0.00 0.00 71 1013.4
20260509125808 60 200 6.0 9.0 0.00 0.00 0.00 71 1013.6
20260509125307 60 214 7.0 10.0 0.00 0.00 0.00 71 1013.7
20260509124801 60 218 7.0 9.0 0.00 0.00 0.00 71 1013.8
20260509124257 60 212 6.0 13.0 0.00 0.00 0.00 71 1013.8
20260509123756 60 188 7.0 9.0 0.00 0.00 0.00 70 1013.7
20260509123253 60 159 2.0 2.0 0.00 0.00 0.00 71 1013.6
20260509122748 60 212 3.0 5.0 0.00 0.00 0.00 70 1013.3
20260509122245 60 189 7.0 9.0 0.00 0.00 0.00 70 1013.7
20260509121742 59 187 7.0 9.0 0.00 0.00 0.00 70 1013.5
20260509121239 60 187 6.0 8.0 0.00 0.00 0.00 70 1013.6
20260509120738 59 180 2.0 2.0 0.00 0.00 0.00 70 1013.6
20260509120235 59 151 4.0 6.0 0.00 0.00 0.00 70 1013.7
20260509115733 59 223 7.0 8.0 0.00 0.00 0.00 70 1013.4
20260509115230 59 248 6.0 8.0 0.00 0.00 0.00 69 1013.6
20260509114728 59 147 7.0 8.0 0.00 0.00 0.00 69 1013.8
20260509114226 59 228 6.0 8.0 0.00 0.00 0.00 68 1013.6
20260509113725 59 205 1.0 2.0 0.00 0.00 0.00 68 1013.6
20260509113221 59 155 3.0 5.0 0.00 0.00 0.00 67 1013.7
20260509112718 59 190 4.0 5.0 0.00 0.00 0.00 66 1013.6
20260509112215 60 178 4.0 5.0 0.00 0.00 0.00 64 1013.6
20260509111712 60 216 5.0 6.0 0.00 0.00 0.00 63 1013.4
20260509111209 60 189 3.0 3.0 0.00 0.00 0.00 63 1013.4
20260509110707 60 200 4.0 6.0 0.00 0.00 0.00 62 1013.3
20260509110203 60 246 4.0 5.0 0.00 0.00 0.00 62 1013.3
20260509105701 60 237 3.0 5.0 0.00 0.00 0.00 62 1013.4
20260509105158 60 198 3.0 3.0 0.00 0.00 0.00 61 1013.3
20260509104655 60 193 7.0 10.0 0.00 0.00 0.00 61 1013.2
20260509104152 60 154 6.0 9.0 0.00 0.00 0.00 60 1013.3
20260509103650 60 209 6.0 7.0 0.00 0.00 0.00 60 1013.3
20260509103148 60 182 5.0 7.0 0.00 0.00 0.00 60 1013.2
20260509102646 60 195 5.0 6.0 0.00 0.00 0.00 60 1013.1
20260509102142 60 193 5.0 7.0 0.00 0.00 0.00 60 1013.0
20260509101638 60 167 4.0 5.0 0.00 0.00 0.00 61 1013.0
20260509101136 60 192 4.0 5.0 0.00 0.00 0.00 61 1013.0
20260509100633 61 187 4.0 6.0 0.00 0.00 0.00 60 1013.0
20260509100130 61 201 4.0 5.0 0.00 0.00 0.00 61 1013.0
20260509095626 60 183 4.0 6.0 0.00 0.00 0.00 61 1013.0
20260509095124 60 208 3.0 5.0 0.00 0.00 0.00 62 1012.9
20260509094619 60 126 3.0 5.0 0.00 0.00 0.00 62 1012.8
20260509094117 61 182 2.0 2.0 0.00 0.00 0.00 63 1012.8
20260509093616 61 215 4.0 5.0 0.00 0.00 0.00 62 1013.1
20260509093112 61 127 4.0 7.0 0.00 0.00 0.00 62 1012.9
20260509092610 61 225 0.0 1.0 0.00 0.00 0.00 62 1013.2
20260509092109 61 195 3.0 5.0 0.00 0.00 0.00 62 1013.1
20260509091606 61 216 2.0 3.0 0.00 0.00 0.00 62 1013.1
20260509091102 61 199 2.0 3.0 0.00 0.00 0.00 61 1013.0
20260509090600 61 191 4.0 7.0 0.00 0.00 0.00 61 1013.1
20260509090057 61 208 2.0 2.0 0.00 0.00 0.00 61 1013.2
20260509085554 61 205 5.0 7.0 0.00 0.00 0.00 61 1013.2
20260509085050 61 207 1.0 2.0 0.00 0.00 0.00 61 1013.1
20260509084547 61 189 5.0 8.0 0.00 0.00 0.00 61 1013.3
20260509084044 61 241 6.0 8.0 0.00 0.00 0.00 60 1013.3
20260509083542 60 205 5.0 7.0 0.00 0.00 0.00 60 1013.4
20260509083038 60 266 4.0 5.0 0.00 0.00 0.00 61 1013.3
20260509082536 60 249 2.0 2.0 0.00 0.00 0.00 60 1013.4
20260509082033 60 187 3.0 8.0 0.00 0.00 0.00 61 1013.2
20260509081530 60 225 4.0 5.0 0.00 0.00 0.00 61 1013.5
20260509081027 60 296 2.0 2.0 0.00 0.00 0.00 61 1013.6
20260509080525 60 265 3.0 5.0 0.00 0.00 0.00 61 1013.6
20260509080023 60 194 2.0 2.0 0.00 0.00 0.00 61 1013.7
20260509075520 60 201 5.0 7.0 0.00 0.00 0.00 61 1013.7
20260509075018 60 225 3.0 3.0 0.00 0.00 0.00 61 1013.9
20260509074514 60 269 3.0 5.0 0.00 0.00 0.00 61 1013.8
20260509074011 60 189 5.0 7.0 0.00 0.00 0.00 61 1013.8
20260509073508 60 230 3.0 5.0 0.00 0.00 0.00 60 1013.8
20260509073004 60 171 7.0 10.0 0.00 0.00 0.00 60 1014.0
20260509072501 60 205 5.0 7.0 0.00 0.00 0.00 60 1013.9
20260509071957 60 135 3.0 3.0 0.00 0.00 0.00 60 1013.9
20260509071454 60 119 3.0 5.0 0.00 0.00 0.00 60 1013.9